PHARB EHRD-EHRD

Flight info

Callsign PHARB
Flight time 0h 4m
Altitude 1000
Route EHRD T/G EHRD
Aircraft DA62/L-SDFGRY/C

Departure

Time 2026-05-04 13:42
Airport Rotterdam The Hague Airport (EHRD)

Arrival

Time 2026-05-04 13:46
Airport Rotterdam The Hague Airport (EHRD)
Time Latitude Longitude Altitude Speed Heading
2026-05-04 13:36 51.95035 4.42831 -5 ft 0 kts 324°
2026-05-04 13:39 51.95048 4.42840 -5 ft 6 kts 81°
2026-05-04 13:39 51.95071 4.42940 -5 ft 13 kts 59°
2026-05-04 13:39 51.95168 4.43203 -5 ft 28 kts 59°
2026-05-04 13:39 51.95290 4.43513 -5 ft 36 kts 57°
2026-05-04 13:40 51.95459 4.43936 -5 ft 41 kts 56°
2026-05-04 13:40 51.95632 4.44372 -4 ft 45 kts 57°
2026-05-04 13:40 51.95814 4.44777 -5 ft 40 kts 15°
2026-05-04 13:40 51.95915 4.44592 -7 ft 18 kts 253°
2026-05-04 13:41 51.95749 4.44181 -5 ft 72 kts 239°
2026-05-04 13:41 51.95448 4.43425 294 ft 76 kts 238°
2026-05-04 13:41 51.95082 4.42509 349 ft 111 kts 246°
2026-05-04 13:42 51.96017 4.43516 726 ft 142 kts 51°
2026-05-04 13:42 51.96612 4.44813 911 ft 146 kts 52°
2026-05-04 13:42 51.97049 4.45932 939 ft 88 kts 53°
2026-05-04 13:42 51.96926 4.46695 764 ft 92 kts 182°
2026-05-04 13:43 51.96455 4.46026 294 ft 96 kts 240°
2026-05-04 13:43 51.96144 4.45171 14 ft 77 kts 238°
2026-05-04 13:43 51.95888 4.44528 -7 ft 77 kts 236°
2026-05-04 13:43 51.95537 4.43660 2 ft 113 kts 239°
2026-05-04 13:44 51.95170 4.42669 511 ft 92 kts 263°
2026-05-04 13:44 51.95673 4.42218 765 ft 111 kts 19°
2026-05-04 13:44 51.96208 4.43239 763 ft 145 kts 56°
2026-05-04 13:44 51.96700 4.44607 1144 ft 134 kts 58°
2026-05-04 13:45 51.96931 4.45950 1180 ft 111 kts 131°
2026-05-04 13:45 51.96292 4.45604 118 ft 113 kts 237°
2026-05-04 13:45 51.95967 4.44724 -6 ft 70 kts 237°
2026-05-04 13:45 51.95722 4.44096 -4 ft 58 kts 239°
2026-05-04 13:46 51.95520 4.43654 -7 ft 43 kts 219°
2026-05-04 13:46 51.95296 4.43413 -5 ft 34 kts 195°
2026-05-04 13:46 51.95160 4.43172 -5 ft 29 kts 241°
2026-05-04 13:46 51.95062 4.42874 -5 ft 17 kts 283°
2026-05-04 13:47 51.95064 4.42859 -5 ft 0 kts 285°